Regional Weather Roundup
Issued by NWS

Home | Current Version | Previous Version | Graphics & Text | Print | Product List | Glossary On
Versions: 1 2 3 4 5 6 7 8 9 10 11 12 13 14 15 16 17 18 19 20 21 22 23 24 25 26 27 28 29 30 31 32 33 34 35 36 37 38 39 40 41 42 43 44 45 46 47 48 49 50
910
ASUS43 KLSX 231007
RWRMO

WEATHER SUMMARY FOR MISSOURI
NATIONAL WEATHER SERVICE SPRINGFIELD MO
500 AM CDT WED MAY 23 2018

NOTE: "FAIR" INDICATES FEW OR NO CLOUDS BELOW 12,000 FEET WITH NO
       SIGNIFICANT WEATHER AND/OR OBSTRUCTIONS TO VISIBILITY.
       CURRENT SKY AND/OR WEATHER CONDITIONS ARE NOT AVAILABLE FOR
       CHILLICOTHE AND FARMINGTON.

MOZ001>031-035>038-043-044-053-054-231100-
...NORTHERN AND WESTERN MISSOURI...

CITY           SKY/WX    TMP DP  RH WIND       PRES   REMARKS
KANSAS CTY INT CLEAR     67  62  84 SE9       30.05R
KANSAS C DTWN  CLEAR     71  61  70 E3        30.04R
LEE`S SUMMIT   CLEAR     69  63  81 SE7       30.06R
ST JOSEPH      CLEAR     64  63  96 CALM      30.04R
CHILLICOTHE      N/A     65  62  90 CALM      30.08R
KIRKSVILLE     PTCLDY    64  62  93 E6        30.10R

$$
MOZ066>068-077>081-088>096-101>105-231100-
...SOUTHWEST MISSOURI...

CITY           SKY/WX    TMP DP  RH WIND       PRES   REMARKS
SPRINGFIELD    CLEAR     67  63  87 SE3       30.06S
JOPLIN         CLEAR     65  64  97 SE3       30.05R
BRANSON        CLEAR     64  64 100 CALM      30.08S FOG

$$
MOZ032>034-039>042-045>050-055>058-069>072-231100-
...CENTRAL MISSOURI...

CITY           SKY/WX    TMP DP  RH WIND       PRES   REMARKS
COLUMBIA       PTCLDY    68  62  81 E8        30.08S
JEFFERSON CITY CLEAR     64  62  93 CALM      30.07S
ROLLA          CLEAR     67  63  87 E8        30.10R
SEDALIA        CLEAR     67  65  93 SE5       30.08R
WHITEMAN AFB   PTCLDY    65  61  86 SE6       30.02R
WARRENSBURG    CLEAR     63  61  94 E3        30.06R
OSAGE BEACH    CLEAR     62  61  96 CALM      30.08R

$$
MOZ051-052-059>065-231100-
...EAST CENTRAL MISSOURI...

CITY           SKY/WX    TMP DP  RH WIND       PRES   REMARKS
ST LOUIS INTL  PTCLDY    67  61  81 E6        30.10R
SPIRIT OF STL  CLEAR     63  63 100 CALM      30.09R
ST CHARLES     CLEAR     64  61  90 NE5       30.09R

$$
MOZ072>076-082>087-097>100-106>115-231100-
...SOUTH CENTRAL AND SOUTHEAST MISSOURI...

CITY           SKY/WX    TMP DP  RH WIND       PRES   REMARKS
CAPE GIRARDEAU FAIR      68  65  90 NE3       30.06R
FARMINGTON     PTCLDY    63  62  97 CALM      30.11R
POPLAR BLUFF   FAIR      69  68  96 N5        30.05R
WEST PLAINS    MOCLDY    64  62  93 N3        30.09R

$$




USA.gov is the U.S. government's official web portal to all federal, state and local government web resources and services.